Miscellaneous Local Product
Issued by NWS Hastings, NE

Home | Current Version | Previous Version | Text Only | Print | Product List | Glossary On
Versions: 1 2 3 4 5 6 7 8 9 10 11 12 13 14 15 16 17 18 19 20 21 22 23 24 25 26 27 28 29 30 31 32 33 34 35 36 37 38 39 40 41 42 43 44 45 46 47 48 49 50
000
AXUS43 KGID 020410
MISGRI

GID CWA HOURLY WEATHER ROUNDUP
NATIONAL WEATHER SERVICE HASTINGS NE
1100 PM CDT WED OCT 01 2014

NOTE: "FAIR" INDICATES FEW OR NO CLOUDS BELOW 12,000 FEET WITH NO
SIGNIFICANT WEATHER AND/OR OBSTRUCTIONS TO VISIBILITY.

...SOUTH CENTRAL NEBRASKA...

CITY           SKY/WX    TMP DP  RH WIND       PRES   REMARKS
GRAND ISLAND   MOCLDY    63  57  81 NW8       29.84S
HASTINGS       PTCLDY    60  56  86 N8        29.81S
KEARNEY        MOCLDY    61  55  82 NE9       29.82R
ORD            PTCLDY    60  50  69 N6        29.82S
YORK           TSTM      64  64 100 W10       29.84R
AURORA         CLOUDY    63  59  88 NE6       29.83R
LEXINGTON      PTCLDY    62  54  76 E9        29.81F
HOLDREGE       PTCLDY    59  56  88 NE8       29.81S
HEBRON         MOCLDY    64  59  81 E3        29.78S

...NEBRASKA PANHANDLE...

CITY           SKY/WX    TMP DP  RH WIND       PRES   REMARKS
CHADRON        CLOUDY    50  47  89 S3        30.00R
ALLIANCE       CLOUDY    47  45  93 NE6       30.00S
SCOTTSBLUFF    CLOUDY    46  44  93 NW3       30.02R
SIDNEY         MOCLDY    45  43  93 N13       30.01S

...WESTERN AND NORTH CENTRAL NEBRASKA...

CITY           SKY/WX    TMP DP  RH WIND       PRES   REMARKS
VALENTINE      LGT RAIN  53  48  83 N10       29.94R
AINSWORTH      CLOUDY    52  50  93 N15       29.92S
ONEILL         CLEAR     57  51  81 N9        29.88R
BROKEN BOW     MOCLDY    63  50  62 NE7G18    29.85R
IMPERIAL       LGT RAIN  50  46  86 N23G39    29.94F
NORTH PLATTE   TSTM      53  50  89 NW29G45   29.94R FOG
MCCOOK         CLOUDY    55  50  83 NW29G43   29.84R

...EASTERN NEBRASKA...

CITY           SKY/WX    TMP DP  RH WIND       PRES   REMARKS
NORFOLK        CLOUDY    62  55  77 CALM      29.83R
SO SIOUX CITY  MOCLDY    60  58  92 NW3       29.80S
TEKAMAH        CLOUDY    64  62  93 NW5       29.79R
COLUMBUS       CLOUDY    64  55  72 E7G16     29.83S
ALBION         LGT RAIN  64  51  63 N6        29.83R
OMAHA EPPLEY   MOCLDY    64  61  90 CALM      29.79R
OFFUTT AFB     PTCLDY    62  62 100 NE2       29.78R
MILLARD        PTCLDY    63  62  96 CALM      29.78S FOG
LINCOLN        MOCLDY    64  61  90 N6        29.80R
NEBRASKA CITY  PTCLDY    64  64 100 CALM      29.78S FOG
BEATRICE       MOCLDY    66  62  87 NE7       29.77S FOG
FALLS CITY     PTCLDY    67  65  93 NE5       29.76R

...NORTHERN KANSAS...

CITY           SKY/WX    TMP DP  RH WIND       PRES   REMARKS
GOODLAND       LGT RAIN  51  48  89 N20G26    29.94R
HILL CITY      CLEAR     58  53  84 NW6       29.79R
NORTON         CLEAR     59  52  77 CALM      29.79R
PHILLIPSBURG   CLEAR     64  54  68 CALM      29.78R
SMITH CENTER   CLEAR     64  57  77 NE9       29.78S
BELOIT         PTCLDY    66  61  82 NE8       29.74S
HAYS           CLEAR     61  55  82 SE3       29.77R
RUSSELL        CLEAR     65  61  87 N7        29.74F
CONCORDIA      PTCLDY    66  62  87 NE8       29.76R
SALINA         PTCLDY    70  63  78 NE6       29.73S
TOPEKA         MOCLDY    65  63  93 E3        29.76R



USA.gov is the U.S. government's official web portal to all federal, state and local government web resources and services.